[[{"header":{"parameterUnit":"m.s-1","parameterCategory":1,"la1":30.2991,"la2":30.254,"lo1":-89.0895,"lo2":-89.0444,"dy":0.0017,"dx":0.0017,"nx":28,"ny":28,"refTime":"2025-08-04T21:00:00:Z","depth":0,"parameterNumber":2,"parameterNumberName":"U-component_of_WINDS"},"data":[0,0,0,0,0,0,0,0,0,0,0,0,0,0,0,0,0,0,0,0,0,0,0,0,0,0,0,0,0,0,0,0,0,0,0,0,0,0,0,0,0,0,0,0,0,0,0,0,0,0,0,0,0,0,0,0,0,0,-3.3515,-3.3514,0,-3.3489,-3.3489,-3.3488,-3.3418,-3.3417,-3.3415,-3.3414,-3.3389,-3.3389,-3.339,0,0,0,0,0,0,0,0,0,0,0,0,0,-3.3506,-3.3506,-3.3515,-3.3514,-3.3514,-3.3489,-3.3489,-3.3488,-3.3419,-3.3417,-3.3415,-3.3413,-3.3388,-3.3389,-3.339,0,0,0,0,0,0,0,0,0,0,0,0,0,-3.3498,-3.3506,-3.3515,-3.3476,-3.3473,-3.3489,-3.3489,-3.3488,-3.3419,-3.3417,-3.3415,-3.3412,-3.3388,-3.3389,-3.339,-3.3442,0,0,-3.3394,-3.3394,0,0,0,0,0,0,0,0,-3.3498,-3.3498,-3.3482,-3.3479,-3.3475,-3.3455,-3.3476,-3.3473,-3.342,-3.3439,-3.3414,-3.3411,-3.3412,-3.3411,-3.3412,-3.3441,-3.344,-3.3394,-3.3394,-3.3395,-3.3395,0,0,0,0,0,0,0,-3.3499,-3.3499,-3.3505,-3.3482,-3.3478,-3.3461,-3.3457,-3.3475,-3.3439,-3.3438,-3.3432,-3.343,-3.341,-3.3411,-3.341,-3.344,-3.3394,-3.3395,-3.3395,-3.3396,-3.3511,-3.3513,0,0,0,0,0,0,-3.3505,-3.35,-3.3505,-3.3504,-3.3481,-3.3463,-3.3459,-3.3463,-3.3439,-3.3433,-3.3432,-3.3427,-3.341,-3.3409,-3.3409,-3.3468,-3.3395,-3.3396,-3.3396,-3.3509,-3.3512,-3.3514,0,0,0,0,0,0,-3.3505,-3.3506,-3.3506,-3.35,-3.3499,-3.3466,-3.3471,-3.3464,-3.3465,-3.3435,-3.3428,-3.3439,-3.3408,-3.3408,-3.3435,-3.3466,-3.3396,-3.3397,-3.3506,-3.351,-3.3513,-3.3586,0,0,0,0,0,0,-3.3505,-3.3506,-3.3525,-3.3501,-3.35,-3.3532,-3.3473,-3.3465,-3.3467,-3.346,-3.3439,-3.3434,-3.3406,-3.3433,-3.3436,-3.3466,-3.3398,-3.3503,-3.3508,-3.3512,-3.3581,-3.3592,-3.3601,0,0,0,0,0,-3.3505,-3.3547,-3.3526,-3.3527,-3.3522,-3.3533,-3.3533,-3.35,-3.3469,-3.3488,-3.3469,-3.3435,-3.3463,-3.3437,-3.3439,-3.347,-3.3501,-3.3506,-3.3511,-3.3576,-3.359,-3.3601,0,0,0,0,0,0,-3.3575,-3.3543,-3.352,-3.3555,-3.3548,-3.3522,-3.3544,-3.3515,-3.3516,-3.3509,-3.3469,-3.3465,-3.3497,-3.3487,-3.3458,-3.352,-3.3476,-3.3482,-3.3525,-3.3537,-3.3547,-3.3548,-3.3399,0,0,0,0,0,-3.3595,-3.3606,-3.3578,-3.3612,-3.3609,-3.3578,-3.3581,-3.3557,-3.3547,-3.3544,-3.3526,-3.3519,-3.3526,-3.3532,-3.3537,-3.358,-3.3574,-3.3603,-3.3613,-3.3622,-3.3627,-3.3649,-3.3661,-3.3532,-3.3532,-3.3532,0,0,-3.3635,-3.3619,-3.3628,-3.3625,-3.3616,-3.3629,-3.3575,-3.3591,-3.36,-3.3546,-3.357,-3.3558,-3.3547,-3.3582,-3.3597,-3.3574,-3.3662,-3.3629,-3.3636,-3.3636,-3.3656,-3.3668,-3.3679,-3.3536,-3.3535,-3.3534,0,0,-3.3714,-3.3704,-3.3731,-3.3724,-3.3711,-3.369,-3.3697,-3.3676,-3.3666,-3.3689,-3.3649,-3.3661,-3.3674,-3.3667,-3.3666,-3.3747,-3.3715,-3.375,-3.3802,-3.3824,-3.3835,-3.3843,-3.3871,-3.3881,-3.3755,-3.3756,-3.3756,0,-3.3766,-3.3783,-3.3749,-3.3767,-3.3767,-3.372,-3.3747,-3.3742,-3.3732,-3.3733,-3.3709,-3.3725,-3.3714,-3.3747,-3.3767,-3.3768,-3.3775,-3.375,-3.3836,-3.3844,-3.3852,-3.3878,-3.3888,-3.376,-3.3759,-3.3759,-3.3759,0,-3.3847,-3.386,-3.3883,-3.3874,-3.3878,-3.3901,-3.387,-3.3878,-3.3855,-3.3837,-3.3862,-3.3848,-3.3849,-3.3856,-3.3833,-3.3887,-3.3873,-3.3843,-3.3798,-3.3869,-3.3892,-3.3902,-3.3766,-3.3764,-3.3763,-3.3762,0,0,-3.3966,-3.394,-3.3949,-3.3945,-3.3929,-3.3938,-3.3961,-3.3962,-3.3969,-3.3965,-3.3982,-3.3995,-3.3968,-3.3966,-3.3943,-3.3963,-3.4026,-3.393,-3.3929,-3.3947,-3.4083,-3.4104,-3.4116,-3.4007,-3.4008,-3.401,-3.4084,0,-3.4039,-3.4074,-3.4045,-3.4085,-3.4096,-3.4053,-3.4072,-3.4065,-3.405,-3.4058,-3.4042,-3.4052,-3.4015,-3.4014,-3.4032,-3.4015,-3.4053,-3.4009,-3.4021,-3.4022,-3.4022,-3.4129,-3.415,-3.4221,-3.4093,-3.4094,-3.4096,0,-3.4129,-3.4129,-3.417,-3.4152,-3.4156,-3.4174,-3.4173,-3.4182,-3.4174,-3.4161,-3.4161,-3.4133,-3.4154,-3.4113,-3.414,-3.4112,-3.4115,-3.4108,-3.411,-3.4108,-3.4061,-3.4127,-3.4242,-3.4252,-3.411,-3.4109,-3.4108,0,-3.421,-3.4221,-3.4246,-3.4244,-3.4225,-3.4238,-3.4231,-3.4221,-3.4224,-3.4224,-3.4226,-3.4229,-3.423,-3.4234,-3.4207,-3.418,-3.4239,-3.4195,-3.4229,-3.4229,-3.424,-3.4239,-3.4356,-3.4247,-3.4247,-3.4247,-3.4247,0,-3.4293,-3.432,-3.4282,-3.4298,-3.4327,-3.4295,-3.4324,-3.4313,-3.4304,-3.4317,-3.4282,-3.4295,-3.426,-3.4271,-3.4251,-3.4276,-3.4278,-3.4268,-3.4262,-3.427,-3.4271,-3.4269,-3.4263,-3.425,-3.4249,-3.4249,-3.4248,0,-3.4387,-3.4363,-3.4388,-3.4369,-3.4365,-3.4387,-3.437,-3.4384,-3.4368,-3.4385,-3.4388,-3.4362,-3.4372,-3.4347,-3.4354,-3.434,-3.4377,-3.4364,-3.4379,-3.4374,-3.4409,-3.4405,-3.4526,-3.4539,-3.4425,-3.4426,-3.4427,0,-3.444,-3.4459,-3.4443,-3.4449,-3.4443,-3.4454,-3.4457,-3.4428,-3.4432,-3.4426,-3.4441,-3.4448,-3.4452,-3.447,-3.4453,-3.4458,-3.4443,-3.4486,-3.4444,-3.4451,-3.4442,-3.444,-3.4441,-3.4493,-3.4495,-3.4496,-3.4497,0,-3.4537,-3.4525,-3.453,-3.4533,-3.4538,-3.4539,-3.4537,-3.4544,-3.4512,-3.452,-3.453,-3.4533,-3.454,-3.4548,-3.4549,-3.4542,-3.4514,-3.4511,-3.4518,-3.4525,-3.4532,-3.4527,-3.44,-3.4507,-3.4506,-3.4505,-3.4505,-3.4504,-3.461,-3.4625,-3.4616,-3.4624,-3.462,-3.462,-3.4632,-3.4618,-3.4626,-3.4629,-3.4612,-3.4625,-3.4618,-3.4617,-3.4614,-3.4624,-3.4605,-3.4617,-3.4619,-3.4622,-3.4626,-3.4533,-3.4625,-3.4625,-3.4624,-3.4624,-3.4624,0,-3.4703,-3.4696,-3.4704,-3.4703,-3.471,-3.4684,-3.4681,-3.4688,-3.4701,-3.4697,-3.4702,-3.4714,-3.4722,-3.4706,-3.4711,-3.4723,-3.471,-3.4725,-3.4722,-3.4721,-3.4644,-3.4636,-3.4735,-3.4735,-3.4735,-3.4735,-3.4735,-3.4735,-3.4752,-3.4777,-3.4764,-3.4786,-3.4779,-3.4792,-3.4792,-3.4792,-3.4789,-3.4803,-3.481,-3.48,-3.4791,-3.4796,-3.4802,-3.4797,-3.48,-3.4819,-3.481,-3.4737,-3.4726,-3.4716,-3.4708,-3.4821,-3.4821,-3.4885,-3.4886,-3.4886]},{"header":{"parameterUnit":"m.s-1","parameterCategory":1,"la1":30.2991,"la2":30.254,"lo1":-89.0895,"lo2":-89.0444,"dy":0.0017,"dx":0.0017,"nx":28,"ny":28,"refTime":"2025-08-04T21:00:00:Z","depth":0,"parameterNumber":3,"parameterNumberName":"V-component_of_WINDS"},"data":[0,0,0,0,0,0,0,0,0,0,0,0,0,0,0,0,0,0,0,0,0,0,0,0,0,0,0,0,0,0,0,0,0,0,0,0,0,0,0,0,0,0,0,0,0,0,0,0,0,0,0,0,0,0,0,0,0,0,2.9195,2.9194,0,2.9117,2.9116,2.9115,2.9092,2.9092,2.9093,2.9093,2.9001,2.8998,2.8995,0,0,0,0,0,0,0,0,0,0,0,0,0,2.9313,2.9311,2.9195,2.9194,2.9193,2.9117,2.9116,2.9115,2.9092,2.9092,2.9093,2.9093,2.9002,2.8998,2.8995,0,0,0,0,0,0,0,0,0,0,0,0,0,2.9251,2.931,2.9195,2.9173,2.917,2.9117,2.9116,2.9115,2.9092,2.9092,2.9093,2.9093,2.9003,2.8999,2.8995,2.8955,0,0,2.8981,2.898,0,0,0,0,0,0,0,0,2.9254,2.9246,2.9177,2.9174,2.9171,2.9115,2.9124,2.9061,2.9091,2.9121,2.9093,2.9094,2.9037,2.903,2.9014,2.8951,2.8947,2.8981,2.8978,2.8977,2.8975,0,0,0,0,0,0,0,2.9259,2.925,2.9164,2.9176,2.9172,2.9163,2.9155,2.9112,2.9076,2.9118,2.9117,2.9108,2.9036,2.9018,2.9012,2.8946,2.8981,2.8977,2.8975,2.8973,2.8844,2.8843,0,0,0,0,0,0,2.9268,2.9253,2.9166,2.9162,2.9216,2.916,2.9151,2.9132,2.9077,2.9069,2.9108,2.9107,2.9025,2.9017,2.9008,2.8957,2.8977,2.8973,2.897,2.8845,2.8844,2.8843,0,0,0,0,0,0,2.9271,2.9261,2.9169,2.9207,2.9195,2.9158,2.9136,2.913,2.9113,2.9069,2.9061,2.9097,2.9025,2.9014,2.8969,2.8954,2.8971,2.8967,2.8846,2.8845,2.8843,2.8856,0,0,0,0,0,0,2.9275,2.9262,2.9249,2.9207,2.9193,2.9135,2.9136,2.9128,2.9107,2.9106,2.9057,2.9049,2.9025,2.8976,2.8965,2.8948,2.8963,2.8847,2.8845,2.8844,2.8857,2.8855,2.8854,0,0,0,0,0,2.9279,2.9254,2.9249,2.9238,2.9177,2.9134,2.9126,2.9102,2.9106,2.9091,2.9063,2.905,2.8958,2.8971,2.8959,2.8941,2.8848,2.8846,2.8844,2.8857,2.8856,2.8854,0,0,0,0,0,0,2.9291,2.9248,2.9242,2.9203,2.9173,2.9131,2.9111,2.9101,2.9067,2.9066,2.9035,2.9024,2.898,2.8956,2.8972,2.8899,2.8902,2.8898,2.8916,2.8914,2.8913,2.8919,2.896,0,0,0,0,0,2.929,2.9263,2.9225,2.9194,2.918,2.9148,2.9129,2.9114,2.908,2.9066,2.9034,2.8998,2.8961,2.8936,2.89,2.8854,2.8841,2.8835,2.8834,2.8833,2.8828,2.88,2.8796,2.8837,2.8837,2.8837,0,0,2.9285,2.9259,2.9242,2.9196,2.9171,2.914,2.9137,2.9105,2.908,2.9059,2.9015,2.8991,2.8948,2.8903,2.8881,2.8881,2.8815,2.883,2.883,2.8826,2.8798,2.8794,2.8791,2.8835,2.8836,2.8836,0,0,2.9262,2.924,2.9212,2.9188,2.9151,2.9131,2.9124,2.9083,2.9068,2.9024,2.9008,2.8976,2.8913,2.8883,2.886,2.8826,2.8812,2.8814,2.8806,2.8779,2.8776,2.8773,2.8759,2.8754,2.8811,2.8811,2.8811,0,2.926,2.9217,2.9197,2.9166,2.9145,2.9129,2.9098,2.9074,2.9026,2.9009,2.9012,2.8932,2.8902,2.8849,2.8841,2.8823,2.8811,2.8819,2.8779,2.8776,2.8772,2.8758,2.8753,2.8811,2.8811,2.8811,2.8811,0,2.9215,2.9185,2.9166,2.9124,2.9101,2.9069,2.9042,2.902,2.9007,2.8985,2.8939,2.8904,2.8859,2.8845,2.8831,2.8789,2.879,2.8786,2.8788,2.8769,2.8755,2.875,2.8812,2.8812,2.8811,2.8811,0,0,2.9195,2.9145,2.9138,2.9118,2.9078,2.9052,2.9019,2.898,2.896,2.8927,2.8896,2.8844,2.8841,2.8814,2.8796,2.8772,2.8745,2.8771,2.8769,2.8765,2.8693,2.8695,2.8689,2.8737,2.8736,2.8735,2.8696,0,2.9164,2.9109,2.9091,2.9043,2.9014,2.8999,2.8969,2.8939,2.8918,2.8886,2.8861,2.8824,2.8823,2.8807,2.8783,2.8754,2.873,2.8756,2.8704,2.8702,2.8713,2.8682,2.8684,2.8649,2.8691,2.869,2.8689,0,2.9121,2.9092,2.9043,2.9006,2.8993,2.8967,2.8929,2.8901,2.8865,2.8851,2.8822,2.8806,2.8767,2.8774,2.8717,2.8736,2.8713,2.8695,2.8693,2.8685,2.8693,2.8671,2.8637,2.8631,2.8681,2.8682,2.8682,0,2.9109,2.9057,2.9021,2.9005,2.8961,2.8944,2.8924,2.8889,2.8866,2.8832,2.8816,2.8776,2.8753,2.872,2.8692,2.87,2.8637,2.8642,2.8621,2.8621,2.8606,2.8607,2.8566,2.8596,2.8596,2.8596,2.8596,0,2.9076,2.9045,2.9015,2.8992,2.8957,2.8935,2.8899,2.8878,2.8847,2.8817,2.8801,2.8772,2.8738,2.8704,2.8681,2.8636,2.8626,2.8611,2.8604,2.8611,2.8612,2.8593,2.8594,2.8594,2.8595,2.8595,2.8595,0,2.9055,2.9034,2.8993,2.8957,2.8946,2.8922,2.8888,2.8863,2.8843,2.8804,2.8794,2.8759,2.8718,2.8688,2.8633,2.8618,2.8569,2.8564,2.8582,2.8579,2.8558,2.8559,2.8501,2.8491,2.8531,2.853,2.853,0,2.9034,2.9011,2.8973,2.8954,2.8935,2.8904,2.8882,2.8859,2.8836,2.8794,2.8773,2.8732,2.8697,2.8631,2.8598,2.8556,2.8548,2.853,2.8541,2.8547,2.8544,2.8545,2.8541,2.8528,2.8527,2.8527,2.8527,0,2.8998,2.899,2.8961,2.8927,2.8902,2.8874,2.8845,2.8829,2.88,2.8774,2.8734,2.8708,2.8654,2.8612,2.8567,2.8541,2.8527,2.8525,2.8517,2.8522,2.8532,2.8524,2.8575,2.8525,2.8525,2.8526,2.8526,2.8526,2.8975,2.8954,2.8924,2.8891,2.8868,2.8842,2.8817,2.8794,2.8762,2.8719,2.8707,2.8664,2.8627,2.8566,2.854,2.8504,2.8504,2.8493,2.849,2.8487,2.8486,2.8541,2.8495,2.8495,2.8495,2.8495,2.8495,0,2.8936,2.8917,2.8888,2.885,2.8824,2.8819,2.8787,2.8763,2.8728,2.8697,2.8665,2.8617,2.8576,2.8541,2.8498,2.8475,2.8467,2.8464,2.8463,2.8457,2.849,2.85,2.8471,2.8471,2.8471,2.8471,2.8471,2.8471,2.8913,2.8876,2.8864,2.8814,2.8793,2.8755,2.8737,2.8711,2.8686,2.8636,2.8603,2.8583,2.8548,2.8502,2.8463,2.8453,2.8436,2.8434,2.8422,2.8452,2.8455,2.8458,2.8467,2.8431,2.8431,2.8392,2.8392,2.8392]}]]